Time,TemperatureF,DewpointF,PressureIn,WindDirection,WindDirectionDegrees,WindSpeedMPH,WindSpeedGustMPH,Humidity,HourlyPrecipIn,Conditions,Clouds,dailyrainin,SoftwareType,DateUTC
2013-07-17 00:04:00,58.5,52.3,29.97,NW,315,0.0,0.0,80,0.00,,---,0.00,VWS V14.01,2013-07-16 14:04:00,
2013-07-17 00:09:00,58.3,52.2,29.97,NW,315,0.0,2.2,80,0.00,,---,0.00,VWS V14.01,2013-07-16 14:09:00,
2013-07-17 00:14:00,58.3,52.5,29.97,NW,315,0.0,0.0,81,0.00,,---,0.00,VWS V14.01,2013-07-16 14:14:00,
2013-07-17 00:19:00,58.3,52.5,29.97,NNW,338,0.0,0.0,81,0.00,,---,0.00,VWS V14.01,2013-07-16 14:19:00,
2013-07-17 00:24:00,58.1,52.3,29.97,NW,315,0.0,0.0,81,0.00,,---,0.00,VWS V14.01,2013-07-16 14:24:00,
2013-07-17 00:29:00,58.1,52.3,29.97,NW,315,0.0,0.0,81,0.00,,---,0.00,VWS V14.01,2013-07-16 14:29:00,
2013-07-17 00:34:00,58.1,52.3,29.97,NW,315,0.0,0.0,81,0.00,,---,0.00,VWS V14.01,2013-07-16 14:34:00,
2013-07-17 00:39:00,58.1,52.3,29.97,NW,315,0.0,0.0,81,0.00,,---,0.00,VWS V14.01,2013-07-16 14:39:00,
2013-07-17 00:44:00,58.1,52.3,29.97,NW,315,0.0,0.0,81,0.00,,---,0.00,VWS V14.01,2013-07-16 14:44:00,
2013-07-17 00:49:00,58.1,52.3,29.97,NW,315,1.3,1.3,81,0.00,,---,0.00,VWS V14.01,2013-07-16 14:49:00,
2013-07-17 00:54:00,58.1,52.3,29.97,NW,315,1.1,1.1,81,0.00,,---,0.00,VWS V14.01,2013-07-16 14:54:00,
2013-07-17 00:59:00,58.1,52.3,29.97,NW,315,0.0,0.0,81,0.00,,---,0.00,VWS V14.01,2013-07-16 14:59:00,
2013-07-17 01:04:00,58.1,52.3,29.97,NNW,338,0.0,1.1,81,0.00,,---,0.00,VWS V14.01,2013-07-16 15:04:00,
2013-07-17 01:09:00,58.1,52.3,29.97,NW,315,0.0,0.0,81,0.00,,---,0.00,VWS V14.01,2013-07-16 15:09:00,
2013-07-17 01:14:00,57.9,52.1,29.97,North,0,1.1,1.1,81,0.00,,---,0.00,VWS V14.01,2013-07-16 15:14:00,
2013-07-17 01:19:00,57.9,52.1,29.97,North,0,2.7,2.7,81,0.00,,---,0.00,VWS V14.01,2013-07-16 15:19:00,
2013-07-17 01:24:00,57.9,52.5,29.97,North,0,2.0,2.5,82,0.00,,---,0.00,VWS V14.01,2013-07-16 15:24:00,
2013-07-17 01:29:00,57.9,52.5,29.97,North,0,0.0,0.0,82,0.00,,---,0.00,VWS V14.01,2013-07-16 15:29:00,
2013-07-17 01:34:00,57.9,52.5,29.97,NW,315,1.6,1.6,82,0.00,,---,0.00,VWS V14.01,2013-07-16 15:34:00,
2013-07-17 01:39:00,57.9,52.5,29.97,NW,315,0.0,1.1,82,0.00,,---,0.00,VWS V14.01,2013-07-16 15:39:00,
2013-07-17 01:44:00,57.7,52.3,29.97,NW,315,0.0,1.6,82,0.00,,---,0.00,VWS V14.01,2013-07-16 15:44:00,
2013-07-17 01:49:00,57.7,52.3,29.97,NW,315,0.0,0.0,82,0.00,,---,0.00,VWS V14.01,2013-07-16 15:49:00,
2013-07-17 01:54:00,57.7,52.3,29.97,NW,315,2.2,2.2,82,0.00,,---,0.00,VWS V14.01,2013-07-16 15:54:00,
2013-07-17 01:59:00,57.7,52.3,29.97,NW,315,2.0,2.0,82,0.00,,---,0.00,VWS V14.01,2013-07-16 15:59:00,
2013-07-17 02:04:00,57.7,52.3,29.97,NW,315,2.7,2.7,82,0.00,,---,0.00,VWS V14.01,2013-07-16 16:04:00,
2013-07-17 02:09:00,57.7,52.3,29.97,NW,315,0.0,0.0,82,0.00,,---,0.00,VWS V14.01,2013-07-16 16:09:00,
2013-07-17 02:14:00,57.7,52.3,29.97,NNW,338,1.6,1.6,82,0.00,,---,0.00,VWS V14.01,2013-07-16 16:14:00,
2013-07-17 02:19:00,57.6,52.1,29.97,NW,315,3.8,3.8,82,0.00,,---,0.00,VWS V14.01,2013-07-16 16:19:00,
2013-07-17 02:24:00,57.7,52.3,29.97,North,0,1.6,2.5,82,0.00,,---,0.00,VWS V14.01,2013-07-16 16:24:00,
2013-07-17 02:29:00,57.6,52.1,29.97,NNW,338,3.4,3.4,82,0.00,,---,0.00,VWS V14.01,2013-07-16 16:29:00,
2013-07-17 02:34:00,57.6,52.4,29.97,WNW,292,2.9,2.9,83,0.00,,---,0.00,VWS V14.01,2013-07-16 16:34:00,
2013-07-17 02:39:00,57.6,52.4,29.97,NW,315,2.2,3.1,83,0.00,,---,0.00,VWS V14.01,2013-07-16 16:39:00,
2013-07-17 02:44:00,57.6,52.4,29.97,NNW,338,2.9,2.9,83,0.00,,---,0.00,VWS V14.01,2013-07-16 16:44:00,
2013-07-17 02:49:00,57.4,52.3,29.97,NW,315,1.6,1.6,83,0.00,,---,0.00,VWS V14.01,2013-07-16 16:49:00,
2013-07-17 02:54:00,57.4,52.3,29.97,NW,315,2.5,2.7,83,0.00,,---,0.00,VWS V14.01,2013-07-16 16:54:00,
2013-07-17 02:59:00,57.4,52.3,29.94,NW,315,2.9,3.6,83,0.00,,---,0.00,VWS V14.01,2013-07-16 16:59:00,
2013-07-17 03:04:00,57.4,52.3,29.94,North,0,1.3,1.3,83,0.00,,---,0.00,VWS V14.01,2013-07-16 17:04:00,
2013-07-17 03:09:00,57.2,52.1,29.94,NNW,338,0.0,0.0,83,0.00,,---,0.00,VWS V14.01,2013-07-16 17:09:00,
2013-07-17 03:14:00,57.4,52.3,29.94,NNW,338,0.0,0.0,83,0.00,,---,0.00,VWS V14.01,2013-07-16 17:14:00,
2013-07-17 03:19:00,57.2,52.1,29.94,NNW,338,0.0,0.0,83,0.00,,---,0.00,VWS V14.01,2013-07-16 17:19:00,
2013-07-17 03:24:00,57.2,51.8,29.94,North,0,0.0,0.0,82,0.00,,---,0.00,VWS V14.01,2013-07-16 17:24:00,
2013-07-17 03:29:00,57.2,51.8,29.94,North,0,1.6,2.0,82,0.00,,---,0.00,VWS V14.01,2013-07-16 17:29:00,
2013-07-17 03:34:00,57.2,51.8,29.94,North,0,2.9,2.9,82,0.00,,---,0.00,VWS V14.01,2013-07-16 17:34:00,
2013-07-17 03:39:00,57.2,51.8,29.94,North,0,3.1,3.1,82,0.00,,---,0.00,VWS V14.01,2013-07-16 17:39:00,
2013-07-17 03:44:00,57.2,51.8,29.94,North,0,2.9,2.9,82,0.00,,---,0.00,VWS V14.01,2013-07-16 17:44:00,
2013-07-17 03:49:00,57.2,51.8,29.94,North,0,2.2,2.2,82,0.00,,---,0.00,VWS V14.01,2013-07-16 17:49:00,
2013-07-17 03:54:00,57.4,51.9,29.94,North,0,2.7,2.7,82,0.00,,---,0.00,VWS V14.01,2013-07-16 17:54:00,
2013-07-17 03:59:00,57.4,51.9,29.94,NNW,338,2.9,3.4,82,0.00,,---,0.00,VWS V14.01,2013-07-16 17:59:00,
2013-07-17 04:04:00,57.4,51.9,29.94,NNW,338,2.5,2.5,82,0.00,,---,0.00,VWS V14.01,2013-07-16 18:04:00,
2013-07-17 04:09:00,57.4,51.9,29.94,NNW,338,4.0,4.0,82,0.00,,---,0.00,VWS V14.01,2013-07-16 18:09:00,
2013-07-17 04:14:00,57.4,51.9,29.94,NNW,338,3.1,3.1,82,0.00,,---,0.00,VWS V14.01,2013-07-16 18:14:00,
2013-07-17 04:19:00,57.6,52.1,29.94,NW,315,3.4,4.0,82,0.00,,---,0.00,VWS V14.01,2013-07-16 18:19:00,
2013-07-17 04:24:00,57.6,52.1,29.94,North,0,3.4,3.4,82,0.00,,---,0.00,VWS V14.01,2013-07-16 18:24:00,
2013-07-17 04:29:00,57.6,52.1,29.94,North,0,3.4,3.4,82,0.00,,---,0.00,VWS V14.01,2013-07-16 18:29:00,
2013-07-17 04:34:00,57.6,52.1,29.94,NNW,338,3.1,3.4,82,0.00,,---,0.00,VWS V14.01,2013-07-16 18:34:00,
2013-07-17 04:39:00,57.6,52.4,29.94,NNE,22,2.9,4.0,83,0.00,,---,0.00,VWS V14.01,2013-07-16 18:39:00,
2013-07-17 04:44:00,57.6,52.4,29.94,North,0,2.5,2.5,83,0.00,,---,0.00,VWS V14.01,2013-07-16 18:44:00,
2013-07-17 04:49:00,57.6,52.4,29.94,NNW,338,2.2,2.2,83,0.00,,---,0.00,VWS V14.01,2013-07-16 18:49:00,
2013-07-17 04:54:00,57.6,52.4,29.94,NNE,22,3.8,3.8,83,0.00,,---,0.00,VWS V14.01,2013-07-16 18:54:00,
2013-07-17 04:59:00,57.6,52.4,29.94,North,0,2.7,2.7,83,0.00,,---,0.00,VWS V14.01,2013-07-16 18:59:00,
2013-07-17 05:04:00,57.7,52.6,29.94,North,0,4.3,4.3,83,0.00,,---,0.00,VWS V14.01,2013-07-16 19:04:00,
2013-07-17 05:09:00,57.7,52.6,29.94,North,0,3.6,3.6,83,0.00,,---,0.00,VWS V14.01,2013-07-16 19:09:00,
2013-07-17 05:14:00,57.7,52.3,29.94,NNW,338,2.5,2.5,82,0.00,,---,0.00,VWS V14.01,2013-07-16 19:14:00,
2013-07-17 05:19:00,57.7,52.3,29.94,WNW,292,2.7,2.7,82,0.00,,---,0.00,VWS V14.01,2013-07-16 19:19:00,
2013-07-17 05:24:00,57.7,52.3,29.94,NNW,338,3.6,3.6,82,0.00,,---,0.00,VWS V14.01,2013-07-16 19:24:00,
2013-07-17 05:29:00,57.7,52.6,29.97,NNW,338,1.3,1.3,83,0.00,,---,0.00,VWS V14.01,2013-07-16 19:29:00,
2013-07-17 05:34:00,57.7,52.6,29.97,North,0,2.5,3.4,83,0.00,,---,0.00,VWS V14.01,2013-07-16 19:34:00,
2013-07-17 05:39:00,57.7,52.6,29.97,NNW,338,1.3,1.3,83,0.00,,---,0.00,VWS V14.01,2013-07-16 19:39:00,
2013-07-17 05:44:00,57.6,52.4,29.97,North,0,2.5,3.1,83,0.00,,---,0.00,VWS V14.01,2013-07-16 19:44:00,
2013-07-17 05:49:00,57.6,52.4,29.97,NNW,338,3.4,3.4,83,0.00,,---,0.00,VWS V14.01,2013-07-16 19:49:00,
2013-07-17 05:54:00,57.6,52.4,29.97,North,0,3.4,3.4,83,0.00,,---,0.00,VWS V14.01,2013-07-16 19:54:00,
2013-07-17 05:59:00,57.6,52.4,29.97,NNW,338,4.7,4.9,83,0.00,,---,0.00,VWS V14.01,2013-07-16 19:59:00,
2013-07-17 06:04:00,57.6,52.4,29.97,North,0,5.4,5.4,83,0.00,,---,0.00,VWS V14.01,2013-07-16 20:04:00,
2013-07-17 06:09:00,57.6,52.4,29.97,NNW,338,4.9,4.9,83,0.00,,---,0.00,VWS V14.01,2013-07-16 20:09:00,
2013-07-17 06:14:00,57.6,52.4,29.97,NNW,338,4.0,4.0,83,0.00,,---,0.00,VWS V14.01,2013-07-16 20:14:00,
2013-07-17 06:19:00,57.4,52.3,29.97,North,0,4.9,4.9,83,0.00,,---,0.00,VWS V14.01,2013-07-16 20:19:00,
2013-07-17 06:24:00,57.4,52.3,29.97,NW,315,2.0,2.0,83,0.00,,---,0.00,VWS V14.01,2013-07-16 20:24:00,
2013-07-17 06:29:00,57.4,52.3,29.97,NNW,338,3.4,3.4,83,0.00,,---,0.00,VWS V14.01,2013-07-16 20:29:00,
2013-07-17 06:34:00,57.4,52.3,29.97,NNW,338,4.0,4.0,83,0.00,,---,0.00,VWS V14.01,2013-07-16 20:34:00,
2013-07-17 06:39:00,57.4,52.3,29.97,North,0,3.4,3.4,83,0.00,,---,0.00,VWS V14.01,2013-07-16 20:39:00,
2013-07-17 06:44:00,57.2,52.1,29.97,NNW,338,4.3,4.9,83,0.00,,---,0.00,VWS V14.01,2013-07-16 20:44:00,
2013-07-17 06:49:00,57.2,52.1,29.97,NW,315,2.7,2.7,83,0.00,,---,0.00,VWS V14.01,2013-07-16 20:49:00,
2013-07-17 06:54:00,57.2,52.1,29.97,NNW,338,3.6,3.6,83,0.00,,---,0.00,VWS V14.01,2013-07-16 20:54:00,
2013-07-17 06:59:00,57.2,52.1,29.97,NNW,338,3.1,3.1,83,0.00,,---,0.00,VWS V14.01,2013-07-16 20:59:00,
2013-07-17 07:04:00,57.2,52.1,29.97,NNW,338,2.0,2.0,83,0.00,,---,0.00,VWS V14.01,2013-07-16 21:04:00,
2013-07-17 07:09:00,57.2,52.4,29.97,NNW,338,2.9,2.9,84,0.00,,---,0.00,VWS V14.01,2013-07-16 21:09:00,
2013-07-17 07:14:00,57.2,52.4,30.00,North,0,2.9,2.9,84,0.00,,---,0.00,VWS V14.01,2013-07-16 21:14:00,
2013-07-17 07:19:00,57.4,52.6,30.00,NNE,22,2.0,2.0,84,0.00,,---,0.00,VWS V14.01,2013-07-16 21:19:00,
2013-07-17 07:24:00,57.4,52.6,30.00,North,0,2.0,2.0,84,0.00,,---,0.00,VWS V14.01,2013-07-16 21:24:00,
2013-07-17 07:29:00,57.4,52.6,30.00,NNW,338,2.9,2.9,84,0.00,,---,0.00,VWS V14.01,2013-07-16 21:29:00,
2013-07-17 07:34:00,57.6,52.8,30.00,North,0,3.1,3.1,84,0.00,,---,0.00,VWS V14.01,2013-07-16 21:34:00,
2013-07-17 07:39:00,57.6,52.8,30.00,North,0,2.0,2.0,84,0.00,,---,0.00,VWS V14.01,2013-07-16 21:39:00,
2013-07-17 07:44:00,57.7,53.0,30.00,North,0,3.1,3.1,84,0.00,,---,0.00,VWS V14.01,2013-07-16 21:44:00,
2013-07-17 07:49:00,57.7,53.0,30.00,North,0,2.7,2.7,84,0.00,,---,0.00,VWS V14.01,2013-07-16 21:49:00,
2013-07-17 07:54:00,57.7,53.0,30.00,NNW,338,3.1,3.1,84,0.00,,---,0.00,VWS V14.01,2013-07-16 21:54:00,
2013-07-17 07:59:00,57.9,53.1,30.00,NNW,338,3.1,3.1,84,0.00,,---,0.00,VWS V14.01,2013-07-16 21:59:00,
2013-07-17 08:04:00,57.9,53.1,30.00,NW,315,1.1,1.1,84,0.00,,---,0.00,VWS V14.01,2013-07-16 22:04:00,
2013-07-17 08:09:00,58.1,53.3,30.00,NW,315,3.8,4.3,84,0.00,,---,0.00,VWS V14.01,2013-07-16 22:09:00,
2013-07-17 08:14:00,58.1,53.3,30.00,NW,315,2.9,5.6,84,0.00,,---,0.00,VWS V14.01,2013-07-16 22:14:00,
2013-07-17 08:19:00,58.1,53.3,30.00,NW,315,2.7,2.9,84,0.00,,---,0.00,VWS V14.01,2013-07-16 22:19:00,
2013-07-17 08:24:00,58.1,53.3,30.00,WNW,292,3.6,3.6,84,0.00,,---,0.00,VWS V14.01,2013-07-16 22:24:00,
2013-07-17 08:29:00,58.1,53.3,30.00,NW,315,2.9,3.8,84,0.00,,---,0.00,VWS V14.01,2013-07-16 22:29:00,
2013-07-17 08:34:00,58.1,53.3,30.00,NW,315,2.0,2.0,84,0.00,,---,0.00,VWS V14.01,2013-07-16 22:34:00,
2013-07-17 08:39:00,58.1,53.3,30.00,North,0,2.7,2.7,84,0.00,,---,0.00,VWS V14.01,2013-07-16 22:39:00,
2013-07-17 08:44:00,58.3,53.5,30.00,NW,315,2.7,2.7,84,0.00,,---,0.00,VWS V14.01,2013-07-16 22:44:00,
2013-07-17 08:49:00,58.3,53.5,30.00,NNW,338,2.0,2.0,84,0.00,,---,0.00,VWS V14.01,2013-07-16 22:49:00,
2013-07-17 08:54:00,58.5,53.7,30.00,NW,315,2.0,2.0,84,0.00,,---,0.00,VWS V14.01,2013-07-16 22:54:00,
2013-07-17 08:59:00,58.6,54.2,30.00,WSW,248,3.4,3.4,85,0.00,,---,0.00,VWS V14.01,2013-07-16 22:59:00,
2013-07-17 09:04:00,58.8,54.3,30.00,WNW,292,0.0,0.0,85,0.00,,---,0.00,VWS V14.01,2013-07-16 23:04:00,
2013-07-17 09:09:00,59.0,54.2,30.00,WNW,292,1.6,1.6,84,0.00,,---,0.00,VWS V14.01,2013-07-16 23:09:00,
2013-07-17 09:14:00,59.2,54.4,30.00,NW,315,1.6,1.6,84,0.00,,---,0.00,VWS V14.01,2013-07-16 23:14:00,
2013-07-17 09:19:00,59.4,54.5,30.00,NW,315,3.1,3.1,84,0.00,,---,0.00,VWS V14.01,2013-07-16 23:19:00,
2013-07-17 09:24:00,59.7,54.9,30.00,NW,315,2.7,3.6,84,0.00,,---,0.00,VWS V14.01,2013-07-16 23:24:00,
2013-07-17 09:29:00,59.9,55.1,30.00,NW,315,3.1,3.1,84,0.00,,---,0.00,VWS V14.01,2013-07-16 23:29:00,
2013-07-17 09:34:00,60.1,54.9,30.00,NW,315,2.5,3.4,83,0.00,,---,0.00,VWS V14.01,2013-07-16 23:34:00,
2013-07-17 09:39:00,60.4,55.3,30.00,NW,315,2.5,2.5,83,0.00,,---,0.00,VWS V14.01,2013-07-16 23:39:00,
2013-07-17 09:44:00,60.6,55.4,30.00,NW,315,1.3,2.0,83,0.00,,---,0.00,VWS V14.01,2013-07-16 23:44:00,
2013-07-17 09:49:00,61.0,55.8,30.00,NW,315,1.1,1.1,83,0.00,,---,0.00,VWS V14.01,2013-07-16 23:49:00,
2013-07-17 09:54:00,61.3,55.8,30.00,WNW,292,0.9,0.9,82,0.00,,---,0.00,VWS V14.01,2013-07-16 23:54:00,
2013-07-17 09:59:00,61.7,56.2,30.00,West,270,2.9,2.9,82,0.00,,---,0.00,VWS V14.01,2013-07-16 23:59:00,
2013-07-17 10:04:00,62.1,56.5,30.00,NNE,22,5.4,5.4,82,0.00,,---,0.00,VWS V14.01,2013-07-17 00:04:00,
2013-07-17 10:09:00,62.4,56.9,30.00,SW,225,2.0,2.0,82,0.00,,---,0.00,VWS V14.01,2013-07-17 00:09:00,
2013-07-17 10:14:00,62.6,56.7,29.97,NW,315,3.8,3.8,81,0.00,,---,0.00,VWS V14.01,2013-07-17 00:14:00,
2013-07-17 10:19:00,63.1,56.9,29.97,SW,225,2.7,2.7,80,0.00,,---,0.00,VWS V14.01,2013-07-17 00:19:00,
2013-07-17 10:24:00,63.5,56.9,29.97,West,270,4.0,4.0,79,0.00,,---,0.00,VWS V14.01,2013-07-17 00:24:00,
2013-07-17 10:29:00,64.2,57.2,29.97,NW,315,4.7,5.6,78,0.00,,---,0.00,VWS V14.01,2013-07-17 00:29:00,
2013-07-17 10:34:00,64.8,57.0,29.97,NW,315,5.8,5.8,76,0.00,,---,0.00,VWS V14.01,2013-07-17 00:34:00,
2013-07-17 10:39:00,65.1,57.0,29.97,West,270,3.8,3.8,75,0.00,,---,0.00,VWS V14.01,2013-07-17 00:39:00,
2013-07-17 10:44:00,65.5,57.0,29.94,WNW,292,4.9,4.9,74,0.00,,---,0.00,VWS V14.01,2013-07-17 00:44:00,
2013-07-17 10:49:00,65.8,57.0,29.94,NW,315,4.3,4.3,73,0.00,,---,0.00,VWS V14.01,2013-07-17 00:49:00,
2013-07-17 10:54:00,66.4,57.1,29.94,West,270,3.4,4.9,72,0.00,,---,0.00,VWS V14.01,2013-07-17 00:54:00,
2013-07-17 10:59:00,66.7,57.0,29.94,WNW,292,6.3,6.3,71,0.00,,---,0.00,VWS V14.01,2013-07-17 00:59:00,
2013-07-17 11:04:00,67.1,57.4,29.94,NW,315,6.5,6.5,71,0.00,,---,0.00,VWS V14.01,2013-07-17 01:04:00,
2013-07-17 11:09:00,67.1,57.0,29.94,West,270,4.0,4.0,70,0.00,,---,0.00,VWS V14.01,2013-07-17 01:09:00,
2013-07-17 11:14:00,67.5,57.0,29.94,NNW,338,5.8,5.8,69,0.00,,---,0.00,VWS V14.01,2013-07-17 01:14:00,
2013-07-17 11:19:00,67.8,56.9,29.94,North,0,5.8,5.8,68,0.00,,---,0.00,VWS V14.01,2013-07-17 01:19:00,
2013-07-17 11:24:00,68.0,56.7,29.94,West,270,4.3,8.5,67,0.00,,---,0.00,VWS V14.01,2013-07-17 01:24:00,
2013-07-17 11:29:00,68.2,56.8,29.94,West,270,6.5,6.5,67,0.00,,---,0.00,VWS V14.01,2013-07-17 01:29:00,
2013-07-17 11:34:00,68.4,57.0,29.94,West,270,7.6,7.6,67,0.00,,---,0.00,VWS V14.01,2013-07-17 01:34:00,
2013-07-17 11:39:00,68.5,57.2,29.94,NW,315,3.4,7.6,67,0.00,,---,0.00,VWS V14.01,2013-07-17 01:39:00,
2013-07-17 11:44:00,68.9,57.1,29.94,NW,315,5.6,6.5,66,0.00,,---,0.00,VWS V14.01,2013-07-17 01:44:00,
2013-07-17 11:49:00,69.1,57.3,29.94,West,270,6.5,7.4,66,0.00,,---,0.00,VWS V14.01,2013-07-17 01:49:00,
2013-07-17 11:54:00,69.3,57.0,29.94,NW,315,6.0,6.0,65,0.00,,---,0.00,VWS V14.01,2013-07-17 01:54:00,
2013-07-17 11:59:00,69.4,57.2,29.94,NW,315,6.0,6.0,65,0.00,,---,0.00,VWS V14.01,2013-07-17 01:59:00,
2013-07-17 12:04:00,69.6,56.9,29.94,West,270,7.4,7.4,64,0.00,,---,0.00,VWS V14.01,2013-07-17 02:04:00,
2013-07-17 12:09:00,69.6,56.9,29.94,West,270,7.6,7.6,64,0.00,,---,0.00,VWS V14.01,2013-07-17 02:09:00,
2013-07-17 12:14:00,69.8,56.7,29.91,WSW,248,2.5,6.9,63,0.00,,---,0.00,VWS V14.01,2013-07-17 02:14:00,
2013-07-17 12:19:00,70.0,56.8,29.91,WNW,292,12.1,12.1,63,0.00,,---,0.00,VWS V14.01,2013-07-17 02:19:00,
2013-07-17 12:24:00,70.0,56.8,29.91,NW,315,3.6,4.3,63,0.00,,---,0.00,VWS V14.01,2013-07-17 02:24:00,
2013-07-17 12:29:00,69.8,56.2,29.91,West,270,3.8,3.8,62,0.00,,---,0.00,VWS V14.01,2013-07-17 02:29:00,
2013-07-17 12:34:00,69.4,56.3,29.91,NW,315,4.7,4.7,63,0.00,,---,0.00,VWS V14.01,2013-07-17 02:34:00,
2013-07-17 12:38:00,69.3,56.1,29.91,West,270,1.3,1.3,63,0.00,,---,0.00,VWS V14.01,2013-07-17 02:38:00,
2013-07-17 12:43:00,69.3,56.1,29.88,West,270,5.6,8.5,63,0.00,,---,0.00,VWS V14.01,2013-07-17 02:43:00,
2013-07-17 12:48:00,69.8,56.7,29.88,West,270,6.0,7.8,63,0.00,,---,0.00,VWS V14.01,2013-07-17 02:48:00,
2013-07-17 12:53:00,70.2,56.5,29.88,NW,315,6.0,6.0,62,0.00,,---,0.00,VWS V14.01,2013-07-17 02:53:00,
2013-07-17 12:58:00,70.3,55.8,29.82,NW,315,6.0,6.0,60,0.00,,---,0.00,VWS V14.01,2013-07-17 02:58:00,
2013-07-17 13:03:00,70.5,56.4,29.82,NW,315,6.0,6.0,61,0.00,,---,0.00,VWS V14.01,2013-07-17 03:03:00,
2013-07-17 13:08:00,70.3,56.3,29.82,NW,315,6.0,6.0,61,0.00,,---,0.00,VWS V14.01,2013-07-17 03:08:00,
2013-07-17 13:13:00,70.3,56.3,29.85,NW,315,6.0,6.0,61,0.00,,---,0.00,VWS V14.01,2013-07-17 03:13:00,
2013-07-17 13:18:00,70.9,55.8,29.85,NW,315,6.0,6.0,59,0.00,,---,0.00,VWS V14.01,2013-07-17 03:18:00,
2013-07-17 13:23:00,71.1,56.0,29.85,West,270,4.9,4.9,59,0.00,,---,0.00,VWS V14.01,2013-07-17 03:23:00,
2013-07-17 13:28:00,71.2,56.2,29.88,NW,315,5.6,5.6,59,0.00,,---,0.00,VWS V14.01,2013-07-17 03:28:00,
2013-07-17 13:33:00,70.9,55.8,29.88,NW,315,5.6,5.6,59,0.00,,---,0.00,VWS V14.01,2013-07-17 03:33:00,
2013-07-17 13:38:00,70.7,55.7,29.88,North,0,4.0,4.0,59,0.00,,---,0.00,VWS V14.01,2013-07-17 03:38:00,
2013-07-17 13:43:00,70.5,55.5,29.91,NW,315,5.4,5.4,59,0.00,,---,0.00,VWS V14.01,2013-07-17 03:43:00,
2013-07-17 13:48:00,70.7,55.7,29.91,North,0,5.4,5.4,59,0.00,,---,0.00,VWS V14.01,2013-07-17 03:48:00,
2013-07-17 13:54:00,70.7,55.7,29.91,WNW,292,2.5,3.6,59,0.00,,---,0.00,VWS V14.01,2013-07-17 03:54:00,
2013-07-17 13:59:00,70.7,55.7,29.91,NW,315,2.0,2.0,59,0.00,,---,0.00,VWS V14.01,2013-07-17 03:59:00,
2013-07-17 14:01:00,70.7,55.7,29.91,NNE,22,2.5,5.4,59,0.00,,---,0.00,VWS V14.01,2013-07-17 04:01:00,
2013-07-17 14:06:00,70.7,55.7,29.91,NNW,338,7.4,7.4,59,0.00,,---,0.00,VWS V14.01,2013-07-17 04:06:00,
2013-07-17 14:11:00,70.7,55.2,29.91,West,270,3.6,3.6,58,0.00,,---,0.00,VWS V14.01,2013-07-17 04:11:00,
2013-07-17 14:16:00,70.7,55.2,29.91,WNW,292,4.3,4.3,58,0.00,,---,0.00,VWS V14.01,2013-07-17 04:16:00,
2013-07-17 14:21:00,70.7,55.2,29.91,NW,315,6.5,6.5,58,0.00,,---,0.00,VWS V14.01,2013-07-17 04:21:00,
2013-07-17 14:26:00,70.7,55.2,29.91,West,270,2.7,2.7,58,0.00,,---,0.00,VWS V14.01,2013-07-17 04:26:00,
2013-07-17 14:31:00,70.7,55.2,29.91,West,270,4.9,4.9,58,0.00,,---,0.00,VWS V14.01,2013-07-17 04:31:00,
2013-07-17 14:36:00,70.7,55.2,29.91,West,270,5.6,5.6,58,0.00,,---,0.00,VWS V14.01,2013-07-17 04:36:00,
2013-07-17 14:41:00,70.7,55.2,29.91,WNW,292,4.9,5.6,58,0.00,,---,0.00,VWS V14.01,2013-07-17 04:41:00,
2013-07-17 14:46:00,70.7,55.2,29.91,WNW,292,2.7,2.7,58,0.00,,---,0.00,VWS V14.01,2013-07-17 04:46:00,
2013-07-17 14:51:00,70.7,55.2,29.91,North,0,3.8,3.8,58,0.00,,---,0.00,VWS V14.01,2013-07-17 04:51:00,
2013-07-17 14:55:00,70.7,55.2,29.91,North,0,3.4,3.4,58,0.00,,---,0.00,VWS V14.01,2013-07-17 04:55:00,
2013-07-17 14:59:00,70.5,55.0,29.91,NW,315,3.8,4.3,58,0.00,,---,0.00,VWS V14.01,2013-07-17 04:59:00,
2013-07-17 15:04:00,70.7,55.2,29.91,NW,315,2.2,3.4,58,0.00,,---,0.00,VWS V14.01,2013-07-17 05:04:00,
2013-07-17 15:09:00,70.7,55.2,29.91,NW,315,3.6,7.8,58,0.00,,---,0.00,VWS V14.01,2013-07-17 05:09:00,
2013-07-17 15:14:00,70.7,55.2,29.91,North,0,3.1,4.3,58,0.00,,---,0.00,VWS V14.01,2013-07-17 05:14:00,
2013-07-17 15:19:00,70.9,55.4,29.91,NW,315,2.0,2.0,58,0.00,,---,0.00,VWS V14.01,2013-07-17 05:19:00,
2013-07-17 15:24:00,70.9,55.4,29.91,NNW,338,5.4,5.4,58,0.00,,---,0.00,VWS V14.01,2013-07-17 05:24:00,
2013-07-17 15:29:00,70.7,54.7,29.91,NW,315,3.4,3.4,57,0.00,,---,0.00,VWS V14.01,2013-07-17 05:29:00,
2013-07-17 15:34:00,70.7,54.7,29.91,North,0,3.1,3.1,57,0.00,,---,0.00,VWS V14.01,2013-07-17 05:34:00,
2013-07-17 15:39:00,70.7,55.2,29.91,NW,315,6.0,6.0,58,0.00,,---,0.00,VWS V14.01,2013-07-17 05:39:00,
2013-07-17 15:44:00,70.5,55.0,29.91,NW,315,4.0,4.0,58,0.00,,---,0.00,VWS V14.01,2013-07-17 05:44:00,
2013-07-17 15:49:00,70.5,55.0,29.91,East,90,0.0,3.1,58,0.00,,---,0.00,VWS V14.01,2013-07-17 05:49:00,
2013-07-17 15:54:00,70.5,55.0,29.91,East,90,0.0,4.0,58,0.00,,---,0.00,VWS V14.01,2013-07-17 05:54:00,
2013-07-17 15:59:00,70.3,54.9,29.91,West,270,2.0,2.0,58,0.00,,---,0.00,VWS V14.01,2013-07-17 05:59:00,
2013-07-17 16:04:00,70.2,54.7,29.91,NNW,338,4.7,4.7,58,0.00,,---,0.00,VWS V14.01,2013-07-17 06:04:00,
2013-07-17 16:09:00,70.0,54.5,29.91,ESE,112,0.0,0.0,58,0.00,,---,0.00,VWS V14.01,2013-07-17 06:09:00,
2013-07-17 16:14:00,69.4,55.0,29.91,NE,45,0.0,0.0,60,0.00,,---,0.00,VWS V14.01,2013-07-17 06:14:00,
2013-07-17 16:19:00,69.3,55.2,29.91,NNW,338,0.0,1.3,61,0.00,,---,0.00,VWS V14.01,2013-07-17 06:19:00,
2013-07-17 16:24:00,69.1,55.5,29.91,NE,45,0.0,0.0,62,0.00,,---,0.00,VWS V14.01,2013-07-17 06:24:00,
2013-07-17 16:29:00,68.7,55.6,29.91,NE,45,0.0,1.1,63,0.00,,---,0.00,VWS V14.01,2013-07-17 06:29:00,
2013-07-17 16:34:00,68.4,55.7,29.91,NNE,22,0.0,0.0,64,0.00,,---,0.00,VWS V14.01,2013-07-17 06:34:00,
2013-07-17 16:39:00,68.2,56.0,29.91,ESE,112,0.0,0.0,65,0.00,,---,0.00,VWS V14.01,2013-07-17 06:39:00,
2013-07-17 16:44:00,67.8,56.1,29.91,North,0,2.9,2.9,66,0.00,,---,0.00,VWS V14.01,2013-07-17 06:44:00,
2013-07-17 16:49:00,67.6,55.9,29.91,NW,315,0.0,0.0,66,0.00,,---,0.00,VWS V14.01,2013-07-17 06:49:00,
2013-07-17 16:54:00,67.3,55.5,29.91,NW,315,0.0,0.0,66,0.00,,---,0.00,VWS V14.01,2013-07-17 06:54:00,
2013-07-17 16:59:00,67.1,55.8,29.91,NE,45,0.0,0.0,67,0.00,,---,0.00,VWS V14.01,2013-07-17 06:59:00,
2013-07-17 17:04:00,66.7,55.5,29.91,East,90,0.0,1.1,67,0.00,,---,0.00,VWS V14.01,2013-07-17 07:04:00,
2013-07-17 17:09:00,66.6,55.3,29.91,WNW,292,0.0,2.2,67,0.00,,---,0.00,VWS V14.01,2013-07-17 07:09:00,
2013-07-17 17:14:00,66.2,54.9,29.91,NNE,22,0.0,0.0,67,0.00,,---,0.00,VWS V14.01,2013-07-17 07:14:00,
2013-07-17 17:19:00,66.0,55.2,29.91,NE,45,0.0,0.0,68,0.00,,---,0.00,VWS V14.01,2013-07-17 07:19:00,
2013-07-17 17:24:00,65.8,55.0,29.91,West,270,0.0,0.0,68,0.00,,---,0.00,VWS V14.01,2013-07-17 07:24:00,
2013-07-17 17:29:00,65.7,55.2,29.91,East,90,0.0,2.9,69,0.00,,---,0.00,VWS V14.01,2013-07-17 07:29:00,
2013-07-17 17:34:00,65.5,55.0,29.91,SSE,158,1.1,1.1,69,0.00,,---,0.00,VWS V14.01,2013-07-17 07:34:00,
2013-07-17 17:39:00,65.1,54.7,29.91,SW,225,0.0,0.0,69,0.00,,---,0.00,VWS V14.01,2013-07-17 07:39:00,
2013-07-17 17:44:00,65.1,54.7,29.91,ENE,68,3.6,3.6,69,0.00,,---,0.00,VWS V14.01,2013-07-17 07:44:00,
2013-07-17 17:49:00,64.9,54.5,29.91,North,0,0.0,0.0,69,0.00,,---,0.00,VWS V14.01,2013-07-17 07:49:00,
2013-07-17 17:54:00,64.9,54.5,29.91,East,90,0.0,1.3,69,0.00,,---,0.00,VWS V14.01,2013-07-17 07:54:00,
2013-07-17 17:59:00,64.9,54.5,29.94,NW,315,2.7,2.7,69,0.00,,---,0.00,VWS V14.01,2013-07-17 07:59:00,
2013-07-17 18:04:00,64.9,54.1,29.94,West,270,0.0,0.0,68,0.00,,---,0.00,VWS V14.01,2013-07-17 08:04:00,
2013-07-17 18:09:00,64.8,54.0,29.94,ENE,68,2.5,2.5,68,0.00,,---,0.00,VWS V14.01,2013-07-17 08:09:00,
2013-07-17 18:14:00,64.8,54.0,29.94,ENE,68,0.0,0.0,68,0.00,,---,0.00,VWS V14.01,2013-07-17 08:14:00,
2013-07-17 18:19:00,64.8,54.0,29.94,SE,135,2.7,2.7,68,0.00,,---,0.00,VWS V14.01,2013-07-17 08:19:00,
2013-07-17 18:24:00,64.6,53.8,29.94,North,0,0.0,1.6,68,0.00,,---,0.00,VWS V14.01,2013-07-17 08:24:00,
2013-07-17 18:29:00,64.6,53.8,29.94,SSW,202,0.0,0.0,68,0.00,,---,0.00,VWS V14.01,2013-07-17 08:29:00,
2013-07-17 18:34:00,64.6,54.2,29.94,North,0,2.0,2.0,69,0.00,,---,0.00,VWS V14.01,2013-07-17 08:34:00,
2013-07-17 18:39:00,64.6,54.2,29.94,NNW,338,2.2,2.2,69,0.00,,---,0.00,VWS V14.01,2013-07-17 08:39:00,
2013-07-17 18:44:00,64.4,54.0,29.94,NW,315,0.0,0.0,69,0.00,,---,0.00,VWS V14.01,2013-07-17 08:44:00,
2013-07-17 18:49:00,64.4,54.0,29.94,WNW,292,0.0,1.3,69,0.00,,---,0.00,VWS V14.01,2013-07-17 08:49:00,
2013-07-17 18:54:00,64.4,54.0,29.94,WNW,292,0.0,1.3,69,0.00,,---,0.00,VWS V14.01,2013-07-17 08:54:00,
2013-07-17 18:59:00,64.2,54.2,29.94,SSE,158,0.0,0.0,70,0.00,,---,0.00,VWS V14.01,2013-07-17 08:59:00,
2013-07-17 19:04:00,64.2,54.2,29.94,WNW,292,0.0,0.0,70,0.00,,---,0.00,VWS V14.01,2013-07-17 09:04:00,
2013-07-17 19:09:00,64.0,54.1,29.94,NNW,338,0.0,0.0,70,0.00,,---,0.00,VWS V14.01,2013-07-17 09:09:00,
2013-07-17 19:14:00,63.9,53.9,29.94,North,0,1.6,1.6,70,0.00,,---,0.00,VWS V14.01,2013-07-17 09:14:00,
2013-07-17 19:19:00,63.9,53.9,29.94,NNW,338,0.0,0.9,70,0.00,,---,0.00,VWS V14.01,2013-07-17 09:19:00,
2013-07-17 19:24:00,63.7,53.7,29.94,West,270,0.0,0.0,70,0.00,,---,0.00,VWS V14.01,2013-07-17 09:24:00,
2013-07-17 19:29:00,63.5,53.5,29.97,West,270,2.0,2.0,70,0.00,,---,0.00,VWS V14.01,2013-07-17 09:29:00,
2013-07-17 19:34:00,63.5,53.5,29.97,North,0,0.0,0.0,70,0.00,,---,0.00,VWS V14.01,2013-07-17 09:34:00,
2013-07-17 19:39:00,63.1,53.2,29.97,NNW,338,0.0,0.0,70,0.00,,---,0.00,VWS V14.01,2013-07-17 09:39:00,
2013-07-17 19:44:00,63.1,53.6,29.97,WNW,292,1.1,1.1,71,0.00,,---,0.00,VWS V14.01,2013-07-17 09:44:00,
2013-07-17 19:49:00,63.1,53.6,29.97,NNW,338,0.0,0.0,71,0.00,,---,0.00,VWS V14.01,2013-07-17 09:49:00,
2013-07-17 19:54:00,63.0,53.4,29.97,North,0,2.5,2.5,71,0.00,,---,0.00,VWS V14.01,2013-07-17 09:54:00,
2013-07-17 19:59:00,62.8,52.9,29.97,North,0,0.0,0.0,70,0.00,,---,0.00,VWS V14.01,2013-07-17 09:59:00,
2013-07-17 20:04:00,62.6,52.7,29.97,NE,45,0.0,0.0,70,0.00,,---,0.00,VWS V14.01,2013-07-17 10:04:00,
2013-07-17 20:09:00,62.6,52.7,29.97,North,0,0.0,0.0,70,0.00,,---,0.00,VWS V14.01,2013-07-17 10:09:00,
2013-07-17 20:14:00,62.4,52.5,29.97,NW,315,0.0,0.0,70,0.00,,---,0.00,VWS V14.01,2013-07-17 10:14:00,
2013-07-17 20:19:00,62.2,52.3,29.97,WNW,292,0.0,0.0,70,0.00,,---,0.00,VWS V14.01,2013-07-17 10:19:00,
2013-07-17 20:24:00,62.2,52.3,29.97,NW,315,0.0,0.0,70,0.00,,---,0.00,VWS V14.01,2013-07-17 10:24:00,
2013-07-17 20:29:00,62.1,52.2,29.97,ENE,68,0.0,0.0,70,0.00,,---,0.00,VWS V14.01,2013-07-17 10:29:00,
2013-07-17 20:34:00,61.9,52.4,29.97,North,0,0.0,0.0,71,0.00,,---,0.00,VWS V14.01,2013-07-17 10:34:00,
2013-07-17 20:39:00,61.7,52.2,29.97,North,0,2.0,2.0,71,0.00,,---,0.00,VWS V14.01,2013-07-17 10:39:00,
2013-07-17 20:44:00,61.7,52.6,29.97,North,0,0.0,0.0,72,0.00,,---,0.00,VWS V14.01,2013-07-17 10:44:00,
2013-07-17 20:49:00,61.7,52.6,29.97,NW,315,1.6,1.6,72,0.00,,---,0.00,VWS V14.01,2013-07-17 10:49:00,
2013-07-17 20:54:00,61.9,52.8,29.97,NNW,338,0.9,0.9,72,0.00,,---,0.00,VWS V14.01,2013-07-17 10:54:00,
2013-07-17 20:59:00,61.9,53.1,29.97,WSW,248,2.7,2.7,73,0.00,,---,0.00,VWS V14.01,2013-07-17 10:59:00,
2013-07-17 21:04:00,61.9,53.5,29.97,NNE,22,0.0,0.0,74,0.00,,---,0.00,VWS V14.01,2013-07-17 11:04:00,
2013-07-17 21:09:00,61.9,53.5,29.97,North,0,3.1,3.1,74,0.00,,---,0.00,VWS V14.01,2013-07-17 11:09:00,
2013-07-17 21:14:00,61.7,53.3,29.97,NW,315,0.0,0.0,74,0.00,,---,0.00,VWS V14.01,2013-07-17 11:14:00,
2013-07-17 21:19:00,61.9,53.5,29.97,North,0,1.6,1.6,74,0.00,,---,0.00,VWS V14.01,2013-07-17 11:19:00,
2013-07-17 21:24:00,61.7,53.3,29.97,North,0,3.4,3.4,74,0.00,,---,0.00,VWS V14.01,2013-07-17 11:24:00,
2013-07-17 21:29:00,61.7,53.7,29.97,WNW,292,1.3,1.3,75,0.00,,---,0.00,VWS V14.01,2013-07-17 11:29:00,
2013-07-17 21:34:00,61.7,53.7,29.97,North,0,0.0,0.0,75,0.00,,---,0.00,VWS V14.01,2013-07-17 11:34:00,
2013-07-17 21:39:00,61.5,53.5,29.97,NW,315,0.0,0.0,75,0.00,,---,0.00,VWS V14.01,2013-07-17 11:39:00,
2013-07-17 21:44:00,61.5,53.5,29.97,ENE,68,2.9,2.9,75,0.00,,---,0.00,VWS V14.01,2013-07-17 11:44:00,
2013-07-17 21:49:00,61.5,53.9,29.97,NE,45,0.0,1.6,76,0.00,,---,0.00,VWS V14.01,2013-07-17 11:49:00,
2013-07-17 21:54:00,61.3,53.7,29.97,North,0,2.2,2.2,76,0.00,,---,0.00,VWS V14.01,2013-07-17 11:54:00,
2013-07-17 21:59:00,61.3,53.7,29.97,NW,315,0.0,0.0,76,0.00,,---,0.00,VWS V14.01,2013-07-17 11:59:00,
2013-07-17 22:04:00,61.3,54.1,29.97,WNW,292,0.0,0.0,77,0.00,,---,0.00,VWS V14.01,2013-07-17 12:04:00,
2013-07-17 22:09:00,61.2,53.9,29.97,WSW,248,0.0,0.0,77,0.00,,---,0.00,VWS V14.01,2013-07-17 12:09:00,
2013-07-17 22:14:00,61.0,53.7,29.97,WSW,248,0.0,0.0,77,0.00,,---,0.00,VWS V14.01,2013-07-17 12:14:00,
2013-07-17 22:19:00,60.8,53.5,29.97,NW,315,0.0,0.0,77,0.00,,---,0.00,VWS V14.01,2013-07-17 12:19:00,
2013-07-17 22:24:00,60.8,53.5,29.97,West,270,0.0,0.0,77,0.00,,---,0.00,VWS V14.01,2013-07-17 12:24:00,
2013-07-17 22:29:00,60.6,53.7,29.97,West,270,0.0,0.0,78,0.00,,---,0.00,VWS V14.01,2013-07-17 12:29:00,
2013-07-17 22:34:00,60.6,53.7,29.97,West,270,0.0,0.0,78,0.00,,---,0.00,VWS V14.01,2013-07-17 12:34:00,
2013-07-17 22:39:00,60.4,53.6,29.97,WNW,292,0.0,0.0,78,0.00,,---,0.00,VWS V14.01,2013-07-17 12:39:00,
2013-07-17 22:44:00,60.4,53.6,29.97,West,270,0.0,0.0,78,0.00,,---,0.00,VWS V14.01,2013-07-17 12:44:00,
2013-07-17 22:49:00,60.4,53.9,29.97,West,270,1.3,1.3,79,0.00,,---,0.00,VWS V14.01,2013-07-17 12:49:00,
2013-07-17 22:54:00,60.3,53.7,29.97,West,270,1.3,2.5,79,0.00,,---,0.00,VWS V14.01,2013-07-17 12:54:00,
2013-07-17 22:59:00,60.1,53.6,29.97,West,270,0.0,0.0,79,0.00,,---,0.00,VWS V14.01,2013-07-17 12:59:00,
2013-07-17 23:04:00,60.1,53.6,29.97,West,270,0.0,0.0,79,0.00,,---,0.00,VWS V14.01,2013-07-17 13:04:00,
2013-07-17 23:09:00,59.9,53.4,29.97,West,270,0.0,0.0,79,0.00,,---,0.00,VWS V14.01,2013-07-17 13:09:00,
2013-07-17 23:14:00,59.9,53.4,29.94,North,0,2.0,2.0,79,0.00,,---,0.00,VWS V14.01,2013-07-17 13:14:00,
2013-07-17 23:19:00,59.7,53.5,29.94,North,0,0.9,0.9,80,0.00,,---,0.00,VWS V14.01,2013-07-17 13:19:00,
2013-07-17 23:24:00,59.7,53.5,29.94,North,0,2.0,2.0,80,0.00,,---,0.00,VWS V14.01,2013-07-17 13:24:00,
2013-07-17 23:29:00,59.5,53.4,29.94,ENE,68,1.1,1.1,80,0.00,,---,0.00,VWS V14.01,2013-07-17 13:29:00,
2013-07-17 23:34:00,59.5,53.4,29.94,NW,315,0.0,0.0,80,0.00,,---,0.00,VWS V14.01,2013-07-17 13:34:00,
2013-07-17 23:39:00,59.5,53.4,29.94,NE,45,0.0,0.0,80,0.00,,---,0.00,VWS V14.01,2013-07-17 13:39:00,
2013-07-17 23:44:00,59.5,53.7,29.94,ENE,68,1.1,2.2,81,0.00,,---,0.00,VWS V14.01,2013-07-17 13:44:00,
2013-07-17 23:49:00,59.4,53.5,29.94,North,0,0.0,0.0,81,0.00,,---,0.00,VWS V14.01,2013-07-17 13:49:00,
2013-07-17 23:54:00,59.4,53.5,29.94,North,0,2.0,2.0,81,0.00,,---,0.00,VWS V14.01,2013-07-17 13:54:00,
2013-07-17 23:59:00,59.5,53.7,29.94,NNE,22,0.0,0.9,81,0.00,,---,0.00,VWS V14.01,2013-07-17 13:59:00,